DW7098 Weather Reports


time (UTC)temp
C
wind
direction
speed
KPH
gust
KPH
rain 1hr
cm
rain 24hr
cm
rain mn
cm
humidity
%
barometer
mb
20260904013048 16 61 4.8 8.0 0.00 0.00 0.00
20260904010122 16 73 6.4 9.7 0.00 0.00 0.00
20260904003044 17 62 6.4 9.7 0.00 0.00 0.00
20260904000116 17 58 1.6 4.8 0.00 0.00 0.00
20260903233101 17 53 3.2 11.3 0.00 0.00 0.00
20260903223059 17 83 1.6 9.7 0.00 0.00 0.00
20260903213033 16 63 1.6 9.7 0.00 0.00 0.00
20260903210107 17 98 3.2 14.5 0.00 0.00 0.00
20260903203046 17 30 4.8 11.3 0.00 0.00 0.00
20260903200114 16 54 4.8 12.9 0.00 0.00 0.00
20260903193036 16 264 1.6 12.9 0.00 0.00 0.00
20260903183041 15 205 3.2 8.0 0.00 0.00 0.00
20260903173054 14 83 1.6 6.4 0.00 0.00 0.00
20260903170106 13 64 3.2 9.7 0.00 0.00 0.00
20260903163038 13 45 3.2 8.0 0.00 0.00 0.00
20260903153055 12 52 3.2 9.7 0.00 0.00 0.00
20260903143104 12 58 0.0 3.2 0.00 0.00 0.00
20260903140113 12 58 0.0 1.6 0.00 0.00 0.00
20260903133047 12 73 0.0 3.2 0.00 0.00 0.00
20260903130120 12 63 4.8 6.4 0.00 0.00 0.00
20260903120122 12 76 3.2 4.8 0.00 0.00 0.00
20260903113044 12 80 3.2 6.4 0.00 0.00 0.00
20260903110109 12 101 1.6 6.4 0.00 0.00 0.00
20260903100107 12 269 0.0 3.2 0.00 0.00 0.00
20260903083025 13 87 0.0 3.2 0.00 0.00 0.00
20260903080100 13 258 0.0 3.2 0.00 0.00 0.00
20260903073050 13 167 0.0 1.6 0.00 0.00 0.00
20260903070109 13 268 0.0 3.2 0.00 0.00 0.00
20260903063040 13 24 0.0 1.6 0.00 0.00 0.00
20260903060109 13 70 3.2 6.4 0.00 0.00 0.00
20260903053029 13 232 0.0 1.6 0.00 0.00 0.00
20260903050108 13 81 0.0 1.6 0.00 0.00 0.00
20260903043033 14 237 0.0 1.6 0.00 0.00 0.00
20260903040112 14 208 0.0 3.2 0.00 0.00 0.00
20260903033047 15 200 0.0 4.8 0.00 0.00 0.00
20260903030106 14 216 0.0 4.8 0.00 0.00 0.00
20260903023058 15 205 1.6 9.7 0.00 0.00 0.00
20260903020100 15 215 4.8 20.9 0.00 0.00 0.00